SL-16 DEB, 39881

Orbit data source: Space-Track

SL-16 DEB, 39881 is space debris in LEO originally from a launch on Fri, 26 Mar 1993 UTC launched from the Tyuratam Missile And Space Complex (TTMTR). Debris objects in space refer to the collection of defunct objects orbiting the Earth. Examples of debris include non-operational satellites, rocket bodies, and fragments generated from explosions, collisions, or faulty payload assembly.

Loading next visibility...
Identifier
39881, 1993-016BF
Orbit
LEO
Country
Flag of CISCIS
Related business
Manufacturer
Unknown
Mission
Spacecraft
Bus & Motor
Unknown
Mass
Unknown
Launch date (UTC)
1993-03-26 (33 years ago)
Launch vehicle
Unknown
Launch site
Tyuratam Missile And Space Complex (TTMTR)
Object type
Payload
Rocket body
Debris
Shape & HBR
Unknown shape, 0.1 m
Radar Cross Section
Small (<0.1 m²)

Expand to show TLE details & history
Last TLE update: 2 weeks ago

TLE from 2 weeks ago
0 SL-16 DEB
1 39881U 93016BF  26021.71446547  .00006701  00000-0  36569-2 0  9992
2 39881  70.9865 173.4901 0121365 205.2861 154.2289 14.08692952576895
Epoch: 2026-01-21T17:08Z
TLE epoch observation values (Epoch: 2026-01-21T17:08:49.816Z)
Latitude
-0°
Longitude
155.20452°
Altitude
945.6 km
Speed
7.339 km/s
True Right ascension
11h 33m 57s
True Declination
0° 00' 00"
Sunlit
Object was in full shadow at epoch
Visualization orbit readout
Latitude
Unknown
Longitude
Unknown
Altitude
Unknown
Speed
Unknown
Apparent Right ascension
Unknown
Apparent Declination
Unknown
Sunlit
N/A
Visualization observer readout
Local Sidereal Time
21:41:12
Azimuth
Unknown
Elevation
Unknown
Doppler factor
Unknown
Orbital elements
Apogee altitude
949.647 km
Perigee altitude
773.913 km
Semi-major axis
7,239.917 km
Eccentricity
0.01214
Inclination
70.9865°
RAAN
173.4901°
Arg. of periapsis
205.2861°
True anomaly
154.8254°
Mean anomaly
154.2289°
Eccentric anomaly
154.52796°
Mean motion
3.52324 °/min
Orbital period
102.18 mins
BSTAR
0.0036569
Loading maneuver chart data...
Computing Atmospheric mass density...
Loading historical data...
Loading historical data...
Loading historical data...
Loading historical data...
Loading historical data...
Loading historical data...
Loading historical data...

Documentation

Showing up to 5 results
|